Location: Squirrel Cove
(50.1074°N, 124.9139°W)
Time: 23:50:22
(UTC-08:00)

BlueWalker 3 - Pass Details

Date: 01 December 2022
Orbit: 499 x 517 km, 53.2° (Epoch: 29 January)

Event Time Altitude Azimuth Distance (km) Brightness Sun altitude
Rises 19:21:33 0° 287° (WNW) 2,628 6.7 -28.2°
Reaches altitude 10° 19:23:47 10° 290° (WNW) 1,737 5.5 -28.5°
Enters shadow 19:25:40 26° 299° (WNW) 1,029 4.0 -28.8°
